Flag for Senegal Weather past 2 weeks in Thiès, Senegal

Now
81 °F

Scattered clouds.


Feels Like: 85 °F
Forecast: 74 / 90 °F
Wind: 7 mph from North

Location: Dakar / Yoff

Current Time: Jul 7, 2015 at 9:30:26 AM

Latest Report: Jul 7, 2015 at 9:00 AM


Visibility: N/A

Pressure: 29.89 "Hg

Humidity: 79%

Dew point: 73 °F

Location of ThièsLocation

Historic Weather in Thiès — Graph

°F

Thiès temperature yesterday

Maximum temperature yesterday: 86 °F (at 1:00 PM)
Minimum temperature yesterday: 79 °F (at 12:00 AM)
Average temperature yesterday: 82 °F

Past Weeks' High & Low Weather Summary

 TemperatureHumidityPressure
High90 °F (Jun 22, 3:30 PM)89% (Jun 23, 1:00 AM)30.07 "Hg (Jun 23, 1:00 AM)
Low75 °F (Jun 26, 4:30 AM)52% (Jun 22, 3:00 PM)29.80 "Hg (Jul 5, 5:30 AM)
Average81 °F76%29.93 "Hg
* Reported Jun 22 8:00 AM — Jul 7 8:30 AM, Thiès, Weather by CustomWeather, © 2015

Note: Actual official high and low records may vary slightly from our data, if they occured in-between our weather recording intervals... More about our weather records

Advertising

Thiès weather history for previous 24 hours

 ConditionsComfort  
Time TempWeatherWind HumidityBarometerVisibility
8:30 AM
Tue, Jul 7
81 °FScattered clouds.8 mph79%29.89 "HgN/A
8:00 AM79 °FScattered clouds.6 mph84%29.89 "HgN/A
7:30 AM79 °FScattered clouds.6 mph79%29.89 "HgN/A
7:00 AM79 °FScattered clouds.5 mph79%29.89 "HgN/A
6:30 AM79 °FPassing clouds.2 mph79%29.86 "HgN/A
6:00 AM79 °FPassing clouds.2 mph79%29.86 "HgN/A
5:30 AM79 °FPassing clouds.2 mph79%29.86 "HgN/A
5:00 AM79 °FPassing clouds.2 mph79%29.86 "HgN/A
4:30 AM79 °FPassing clouds.2 mph79%29.86 "HgN/A
4:00 AM79 °FPassing clouds.1 mph79%29.86 "HgN/A
3:30 AM79 °FPassing clouds.2 mph79%29.86 "HgN/A
3:00 AM79 °FPassing clouds.2 mph79%29.86 "HgN/A
2:30 AM79 °FPassing clouds.3 mph79%29.86 "HgN/A
2:00 AM79 °FPassing clouds.2 mph79%29.89 "HgN/A
1:30 AM79 °FPassing clouds.2 mph79%29.89 "HgN/A
1:00 AM79 °FPassing clouds.5 mph79%29.89 "HgN/A
12:30 AM79 °FPassing clouds.3 mph79%29.89 "HgN/A
12:00 AM79 °FPassing clouds.5 mph79%29.89 "HgN/A
11:30 PM
Mon, Jul 6
79 °FPassing clouds.5 mph79%29.89 "HgN/A
11:00 PM79 °FPassing clouds.5 mph79%29.89 "HgN/A
10:30 PM79 °FPassing clouds.5 mph79%29.89 "HgN/A
10:00 PM81 °FPassing clouds.6 mph74%29.89 "HgN/A
9:00 PM81 °FPassing clouds.8 mph74%29.86 "HgN/A
8:30 PM81 °FPassing clouds.7 mph74%29.86 "HgN/A
8:00 PM81 °FPassing clouds.7 mph74%29.86 "HgN/A
7:30 PM81 °FPartly sunny.8 mph74%29.86 "HgN/A
7:00 PM82 °FPartly sunny.9 mph70%29.83 "HgN/A
6:30 PM82 °FPartly sunny.7 mph70%29.83 "HgN/A
6:00 PM84 °FScattered clouds.9 mph66%29.83 "HgN/A
5:30 PM84 °FScattered clouds.8 mph66%29.83 "HgN/A
5:00 PM86 °FScattered clouds.8 mph66%29.83 "HgN/A
4:30 PM86 °FScattered clouds.9 mph66%29.83 "HgN/A
4:00 PM86 °FScattered clouds.9 mph66%29.83 "HgN/A
3:30 PM86 °FScattered clouds.9 mph66%29.83 "HgN/A
3:00 PM86 °FScattered clouds.8 mph66%29.86 "HgN/A
2:30 PM86 °FScattered clouds.9 mph66%29.86 "HgN/A
2:00 PM86 °FScattered clouds.8 mph66%29.86 "HgN/A
1:30 PM86 °FScattered clouds.7 mph66%29.86 "HgN/A
1:00 PM86 °FPartly sunny.7 mph66%29.89 "HgN/A
12:30 PM84 °FPartly sunny.7 mph70%29.89 "HgN/A
12:00 PM84 °FPartly sunny.7 mph70%29.89 "HgN/A
11:30 AM84 °FPartly sunny.7 mph70%29.89 "HgN/A
11:00 AM84 °FPartly sunny.6 mph70%29.89 "HgN/A
10:30 AM82 °FPartly sunny.8 mph74%29.89 "HgN/A
10:00 AM82 °FPartly sunny.7 mph74%29.89 "HgN/A
9:30 AM82 °FPartly sunny.7 mph74%29.89 "HgN/A
9:00 AM81 °FScattered clouds.7 mph79%29.86 "HgN/A
Weather by CustomWeather, © 2015

See weather overviewHow to use our weather pages